TimeBST,TemperatureF,Dew PointF,Humidity,Sea Level PressureIn,VisibilityMPH,Wind Direction,Wind SpeedMPH,Gust SpeedMPH,PrecipitationIn,Events,Conditions,WindDirDegrees,DateUTC
12:50 AM,53,52,95,30.22,12,Calm,Calm,,,,,,2013-08-13 23:50:00
12:50 AM,53.6,51.8,94,30.21,6.2,Calm,Calm,-,N/A,,Unknown,0,2013-08-13 23:50:00
1:50 AM,51.8,50.0,94,30.21,1.4,West,1.2,-,N/A,,Unknown,260,2013-08-14 00:50:00
2:50 AM,50.0,48.2,94,30.21,6.2,NW,3.5,-,N/A,,Unknown,310,2013-08-14 01:50:00
3:50 AM,51,49,92,30.22,14,West,1.2,,,,,260,2013-08-14 02:50:00
3:50 AM,50.0,50.0,100,30.21,6.2,West,1.2,-,N/A,,Unknown,260,2013-08-14 02:50:00
4:50 AM,50.0,48.2,94,30.21,6.2,Calm,Calm,-,N/A,,Unknown,0,2013-08-14 03:50:00
5:50 AM,48.2,48.2,100,30.21,6.2,Calm,Calm,-,N/A,,Partly Cloudy,0,2013-08-14 04:50:00
6:50 AM,51,49,91,30.23,16,East,1.2,,,,Scattered Clouds,90,2013-08-14 05:50:00
6:50 AM,50.0,50.0,100,30.21,-9999.0,East,1.2,-,N/A,,Clear,90,2013-08-14 05:50:00
7:50 AM,53.6,51.8,94,30.21,-9999.0,Calm,Calm,-,N/A,,Clear,0,2013-08-14 06:50:00
8:50 AM,59.0,53.6,82,30.21,-9999.0,SW,4.6,-,N/A,,Clear,220,2013-08-14 07:50:00
9:50 AM,64,53,60,30.23,19,SSW,3.5,,,,Scattered Clouds,200,2013-08-14 08:50:00
9:50 AM,64.4,53.6,68,30.21,6.2,SSW,3.5,-,N/A,,Partly Cloudy,200,2013-08-14 08:50:00
10:50 AM,66.2,51.8,60,30.21,6.2,SW,6.9,-,N/A,,Partly Cloudy,230,2013-08-14 09:50:00
11:50 AM,68.0,53.6,60,30.21,6.2,WSW,6.9,-,N/A,,Scattered Clouds,250,2013-08-14 10:50:00
12:50 PM,70,52,41,30.21,28,WSW,10.4,,,,Partly Cloudy,250,2013-08-14 11:50:00
12:50 PM,69.8,51.8,53,30.21,6.2,WSW,10.4,-,N/A,,Mostly Cloudy,250,2013-08-14 11:50:00
1:50 PM,73.4,51.8,47,30.18,6.2,SW,11.5,-,N/A,,Scattered Clouds,220,2013-08-14 12:50:00
2:50 PM,71.6,51.8,50,30.18,6.2,SW,11.5,-,N/A,,Mostly Cloudy,230,2013-08-14 13:50:00
3:50 PM,72,51,36,30.18,25,WSW,12.7,,,,Mostly Cloudy,250,2013-08-14 14:50:00
3:50 PM,71.6,50.0,46,30.18,6.2,WSW,12.7,-,N/A,,Mostly Cloudy,250,2013-08-14 14:50:00
4:50 PM,69.8,53.6,56,30.15,6.2,WSW,10.4,-,N/A,,Mostly Cloudy,240,2013-08-14 15:50:00
5:50 PM,68.0,53.6,60,30.15,6.2,WSW,12.7,-,N/A,,Mostly Cloudy,240,2013-08-14 16:50:00
6:50 PM,65,56,65,30.18,5,SW,11.5,,,Rain,Light Rain,230,2013-08-14 17:50:00
6:50 PM,64.4,55.4,73,30.15,5.0,SW,11.5,-,N/A,Rain,Light Rain,230,2013-08-14 17:50:00
7:06 PM,62.6,59.0,88,30.18,2.5,SW,9.2,-,N/A,Rain,Rain,230,2013-08-14 18:06:00
7:50 PM,60.8,59.0,94,30.18,3.1,SW,6.9,-,N/A,,Mostly Cloudy,220,2013-08-14 18:50:00
8:50 PM,60.8,59.0,94,30.18,6.2,SW,5.8,-,N/A,,Mostly Cloudy,220,2013-08-14 19:50:00
9:50 PM,61,59,92,30.18,11,SW,5.8,,,,Overcast,220,2013-08-14 20:50:00
9:50 PM,60.8,59.0,94,30.18,6.2,SW,5.8,-,N/A,,Overcast,220,2013-08-14 20:50:00
10:50 PM,60.8,59.0,94,30.15,6.2,SW,6.9,-,N/A,,Mostly Cloudy,220,2013-08-14 21:50:00
11:50 PM,62.6,60.8,94,30.15,6.2,SW,4.6,-,N/A,,Overcast,220,2013-08-14 22:50:00